Regional Weather Roundup
Issued by NWS

Home | Current Version | Previous Version | Graphics & Text | Print | Product List | Glossary On
Versions: 1 2 3 4 5 6 7 8 9 10 11 12 13 14 15 16 17 18 19 20 21 22 23 24 25 26 27 28 29 30 31 32 33 34 35 36 37 38 39 40 41 42 43 44 45 46 47 48 49 50
927
ASUS45 KPSR 240310
RWRAZ

ARIZONA HOURLY REGIONAL WEATHER ROUNDUP
NATIONAL WEATHER SERVICE PHOENIX AZ
800 PM MST THU NOV 23 2017

NOTE: FAIR INDICATES FEW OR NO CLOUDS BELOW 12,000 FEET WITH NO
SIGNIFICANT WEATHER AND/OR OBSTRUCTIONS TO VISIBILITY.

AZZ001>003-036-240400-
NORTHWEST ARIZONA

CITY           SKY/WX    TMP DP  RH WIND       PRES   REMARKS
BULLHEAD CITY  CLEAR     75  36  23 CALM      29.95S
KINGMAN        CLEAR     53  27  36 CALM      30.10S
$$

AZZ004>008-015-016-018-240400-
NORTH CENTRAL ARIZONA

CITY           SKY/WX    TMP DP  RH WIND       PRES   REMARKS
GRAND CANYON   PTCLDY    35  14  42 CALM      30.27F
WILLIAMS       CLEAR     43  16  33 S10       30.27S
PRESCOTT       CLEAR     53  30  41 S7        30.17S
FLAGSTAFF      CLEAR     38  26  62 CALM      30.29F
PAYSON         CLEAR     61  25  25 CALM      30.19R
PAGE           CLEAR     51  33  50 CALM      30.16R
$$

AZZ009>014-017-240400-
NORTHEAST ARIZONA

CITY           SKY/WX    TMP DP  RH WIND       PRES   REMARKS
WINSLOW        CLEAR     44  23  43 SW3       30.20R
SAINT JOHNS    PTCLDY    46  23  40 S9        30.22S
WINDOW ROCK    CLEAR     42  24  49 CALM      30.28R
SHOW LOW       PTCLDY    46  25  42 CALM      30.26S
$$

AZZ540-542>544-546-548-240400-
GREATER PHOENIX AREA

CITY           SKY/WX    TMP DP  RH WIND       PRES   REMARKS
PHOENIX        CLEAR     74  39  28 CALM      29.92S
BUCKEYE        CLEAR     66  28  24 N6        29.93S
GLENDALE       PTCLDY    68  34  28 CALM      29.95R
LUKE AFB       CLEAR     66  43  43 CALM      29.92R
DEER VALLEY    CLEAR     69  33  26 NE6       29.95R
SCOTTSDALE     CLEAR     73  39  29 N3        29.96S
MESA-FALCON    PTCLDY    72  37  28 NE3       29.95S
MESA-GATEWAY   PTCLDY    66  34  30 NE5       29.96S
CHANDLER       CLEAR     70  41  35 CALM      29.94S
$$

AZZ539-553-240400-
SOUTHWEST MARICOPA COUNTY AND PINAL COUNTY

CITY           SKY/WX    TMP DP  RH WIND       PRES   REMARKS
CASA GRANDE    NOT AVBL
$$

AZZ503-504-507>509-240400-
SOUTHEAST ARIZONA

CITY           SKY/WX    TMP DP  RH WIND       PRES   REMARKS
TUCSON         CLEAR     66  25  21 S3        30.03S
DAVIS-MONTHAN  CLEAR     65  24  21 CALM      30.01S
RYAN FIELD     CLEAR     66  28  24 W5        30.02S
NOGALES        CLEAR     60  24  25 CALM      30.09R
SIERRA VISTA   CLEAR     58  22  25 SW8       30.15S
DOUGLAS        CLEAR     53  20  27 SE3       30.12S
SAFFORD        CLEAR     59  21  23 SE8       30.06S
$$

AZZ532-240400-
SOUTHWEST ARIZONA

CITY           SKY/WX    TMP DP  RH WIND       PRES   REMARKS
YUMA           CLEAR     74  41  30 CALM      29.90S
$$

CAZ041-043-047-048-061-525>527-560>570-240400-
SOUTHERN CALIFORNIA

CITY           SKY/WX    TMP DP  RH WIND       PRES   REMARKS
DOWNTOWN L.A.  CLEAR     71  50  47 CALM      29.91R
L.A. AIRPORT   PTCLDY    70  55  59 W7        29.92R
SAN DIEGO      PTCLDY    73  45  36 CALM      29.93S
BURBANK        CLEAR     75  45  34 CALM      29.94R
ONTARIO        PTCLDY    76  39  26 W3        29.95R
RIVERSIDE      CLEAR     75  43  31 SW3       29.95R
PALM SPRINGS   CLEAR     75  42  30 NW3       29.95R
EL CENTRO NAS  CLEAR     71  37  28 CALM      29.91S
IMPERIAL       CLEAR     72  46  39 CALM      29.89S
BLYTHE         CLEAR     71  37  28 NW8       29.92S
NEEDLES        CLEAR     72  34  24 W9        29.96S
$$

NVZ020-UTZ003-240400-
SOUTHERN NEVADA-UTAH

CITY           SKY/WX    TMP DP  RH WIND       PRES   REMARKS
LAS VEGAS      PTCLDY    68  38  33 SW3       30.02F
SALT LAKE CITY CLOUDY    54  45  71 S6        30.06F
$$

NMZ009-TXZ055-240400-
NEW MEXICO-WEST TEXAS

CITY           SKY/WX    TMP DP  RH WIND       PRES   REMARKS
ALBUQUERQUE    CLOUDY    54  30  40 CALM      30.19S
EL PASO        PTCLDY    59  28  30 SW6       30.14S
$$


........................KEY........................
SKY/WX - SKY CONDITION/WEATHER
TMP    - TEMPERATURE IN FAHRENHEIT
DP     - DEW POINT IN FAHRENHEIT
RH     - RELATIVE HUMIDITY IN PERCENT
WIND   - DIRECTION AND SPEED IN MILES PER HOUR (MPH)
VRB    - VARIABLE WIND DIRECTION
PRES   - MEAN SEA LEVEL PRESSURE IN INCHES OF MERCURY
         F - FALLING PRESSURE   R - RISING PRESSURE
         S - STEADY PRESSURE
VSB    - VISIBILITY IN MILES
HX     - HEAT INDEX IN FAHRENHEIT
WCI    - WIND CHILL INDEX IN FAHRENHEIT
TC     - TEMPERATURE IN CELSIUS WHICH IS ALSO KNOWN AS
         TEMPERATURE IN CENTIGRADE
AFB    - AIR FORCE BASE
         LUKE AFB IS LUKE AIR FORCE BASE
         DAVIS-MONTHAN IS DAVIS-MONTHAN AIR FORCE BASE
NAS    - NAVAL AIR STATION
         EL CENTRO NAS IS EL CENTRO NAVAL AIR STATION
N/A    - NOT AVAILABLE





USA.gov is the U.S. government's official web portal to all federal, state and local government web resources and services.